Weather History for Newcastle, WY

Change the Weather History Date:

Saturday, May 18, 2013

  Actual Average (KCUT) Record (KCUT)
Temperature  
Mean Temperature 17 °C 9 °C  
Max Temperature 23 °C 16 °C 28 °C (1948)
Min Temperature 10 °C 3 °C -3 °C (1965)
Degree Days  
Heating Degree Days 4 16  
Month to date heating degree days 334  
Since 1 July heating degree days 7984  
Cooling Degree Days 0 0  
Month to date cooling degree days 0  
Year to date cooling degree days 0  
Growing Degree Days 12 (Base 50)    
Moisture  
Dew Point 9 °C    
Average Humidity 72    
Maximum Humidity 100    
Minimum Humidity 33    
Precipitation  
Precipitation 0.25 mm 2.54 mm 4.19 mm (1978)
Month to date precipitation 1.68  
Year to date precipitation 5.67  
Sea Level Pressure  
Sea Level Pressure 1010 hPa    
Wind  
Wind Speed 13 km/h (NW)    
Max Wind Speed 50 km/h    
Max Gust Speed 64 km/h    
Visibility 15 kilometers    
Events Rain , Thunderstorm    
T = Trace of Precipitation, MM = Missing Value Source: NWS Daily Summary

Daily Weather History Graph

Daily Weather History Graph

Search for Another Location

Airport:

Trip Planner

Search our weather history database for the weather conditions in past years. The results will help you decide how hot, cold, wet, or windy it might be!

Date:

Astronomy

May. 18, 2013 Rise Set
Actual Time 5:28 AM MDT 8:19 PM MDT
Civil Twilight 4:54 AM MDT 8:53 PM MDT
Nautical Twilight 4:11 AM MDT 9:36 PM MDT
Astronomical Twilight 3:21 AM MDT 10:26 PM MDT
Moon 1:12 PM MDT (5/18) 1:36 AM MDT (5/18)
Length of Visible Light 15h 59m
Length of Day
14h 51m
First Quarter, 56% of the Moon is Illuminated
May 18
First Quarter
May 24
Full
May 31
Last Quarter
Jun 8
New
Jun 16
First Quarter

Hourly Weather History & Observations

Time (MDT) Temp. Dew Point Humidity Pressure Visibility Wind Dir Wind Speed Gust Speed Precip Events Conditions
12:15 AM 13.0 °C 9.0 °C 77% 1009.7 hPa 16.1 km NNE 14.8 km/h / 4.1 m/s - N/A   Clear
12:35 AM 13.0 °C 9.0 °C 77% 1009.7 hPa 16.1 km North - - N/A   Clear
12:55 AM 12.0 °C 9.0 °C 82% 1009.7 hPa 16.1 km Calm Calm - N/A   Clear
1:15 AM 13.0 °C 9.0 °C 77% 1009.7 hPa 16.1 km Calm Calm - N/A   Clear
1:35 AM 12.0 °C 9.0 °C 82% 1009.7 hPa 16.1 km Calm Calm - N/A   Clear
1:55 AM 12.0 °C 9.0 °C 82% 1009.7 hPa 16.1 km WNW 13.0 km/h / 3.6 m/s - N/A   Clear
2:15 AM 12.0 °C 9.0 °C 82% 1010.0 hPa 16.1 km Calm Calm - N/A   Clear
2:35 AM 11.0 °C 8.0 °C 82% 1010.7 hPa 16.1 km NNW 13.0 km/h / 3.6 m/s - N/A   Clear
2:55 AM 11.0 °C 9.0 °C 88% 1011.1 hPa 16.1 km NW 7.4 km/h / 2.1 m/s - N/A   Clear
3:15 AM 11.0 °C 9.0 °C 88% 1010.7 hPa 16.1 km WNW 9.3 km/h / 2.6 m/s - N/A   Clear
3:35 AM 11.0 °C 10.0 °C 94% 1011.1 hPa 16.1 km West 14.8 km/h / 4.1 m/s - N/A   Clear
3:55 AM 11.0 °C 9.0 °C 88% 1010.7 hPa 16.1 km NNW 14.8 km/h / 4.1 m/s - N/A   Clear
4:15 AM 11.0 °C 10.0 °C 94% 1010.7 hPa 16.1 km WNW 9.3 km/h / 2.6 m/s - N/A   Clear
4:35 AM 10.0 °C 10.0 °C 100% 1011.4 hPa 16.1 km WNW 16.7 km/h / 4.6 m/s - N/A   Clear
4:55 AM 10.0 °C 10.0 °C 100% 1011.1 hPa 4.0 km WNW 16.7 km/h / 4.6 m/s - N/A   Mostly Cloudy
5:15 AM 10.0 °C 10.0 °C 100% 1010.7 hPa 4.0 km NNW 18.5 km/h / 5.1 m/s - N/A   Overcast
5:35 AM 10.0 °C 10.0 °C 100% 1011.1 hPa 8.0 km WNW 18.5 km/h / 5.1 m/s - N/A   Overcast
5:55 AM 10.0 °C 9.0 °C 94% 1011.1 hPa 16.1 km WNW 13.0 km/h / 3.6 m/s - N/A   Scattered Clouds
6:15 AM 10.0 °C 10.0 °C 100% 1011.4 hPa 11.3 km NW 16.7 km/h / 4.6 m/s - N/A   Mostly Cloudy
6:35 AM 10.0 °C 10.0 °C 100% 1012.1 hPa 16.1 km NW 14.8 km/h / 4.1 m/s - N/A   Overcast
6:55 AM 11.0 °C 10.0 °C 94% 1012.1 hPa 16.1 km NW 14.8 km/h / 4.1 m/s - N/A   Overcast
7:15 AM 11.0 °C 10.0 °C 94% 1012.1 hPa 16.1 km NW 18.5 km/h / 5.1 m/s - N/A   Overcast
7:35 AM 12.0 °C 10.0 °C 88% 1012.1 hPa 16.1 km NW 14.8 km/h / 4.1 m/s - N/A   Overcast
7:55 AM 12.0 °C 10.0 °C 88% 1012.4 hPa 16.1 km NW 11.1 km/h / 3.1 m/s - N/A   Overcast
8:15 AM 12.0 °C 10.0 °C 88% 1012.4 hPa 16.1 km WNW 14.8 km/h / 4.1 m/s - N/A   Overcast
8:35 AM 13.0 °C 11.0 °C 88% 1012.4 hPa 16.1 km WNW 13.0 km/h / 3.6 m/s - N/A   Overcast
8:55 AM 13.0 °C 11.0 °C 88% 1012.4 hPa 16.1 km West 11.1 km/h / 3.1 m/s - N/A   Overcast
9:15 AM 13.0 °C 11.0 °C 88% 1012.4 hPa 16.1 km NW 9.3 km/h / 2.6 m/s - N/A   Overcast
9:35 AM 14.0 °C 11.0 °C 82% 1012.1 hPa 16.1 km NW 11.1 km/h / 3.1 m/s - N/A   Mostly Cloudy
9:55 AM 15.0 °C 11.0 °C 77% 1012.1 hPa 16.1 km NW 7.4 km/h / 2.1 m/s - N/A   Scattered Clouds
10:15 AM 16.0 °C 11.0 °C 72% 1012.1 hPa 16.1 km West 13.0 km/h / 3.6 m/s - N/A   Clear
10:35 AM 16.0 °C 11.0 °C 72% 1011.7 hPa 16.1 km West 5.6 km/h / 1.5 m/s - N/A   Scattered Clouds
10:55 AM 17.0 °C 11.0 °C 68% 1011.4 hPa 16.1 km WNW 7.4 km/h / 2.1 m/s - N/A   Clear
11:15 AM 17.0 °C 10.0 °C 63% 1011.4 hPa 16.1 km WNW 7.4 km/h / 2.1 m/s - N/A   Clear
11:35 AM 19.0 °C 11.0 °C 60% 1011.4 hPa 16.1 km WSW 11.1 km/h / 3.1 m/s - N/A   Clear
11:55 AM 18.0 °C 11.0 °C 64% 1011.1 hPa 16.1 km WSW 11.1 km/h / 3.1 m/s - N/A   Scattered Clouds
12:15 PM 18.0 °C 11.0 °C 64% 1011.1 hPa 16.1 km West 5.6 km/h / 1.5 m/s - N/A   Scattered Clouds
12:35 PM 18.0 °C 11.0 °C 64% 1011.1 hPa 16.1 km WNW 14.8 km/h / 4.1 m/s - N/A   Scattered Clouds
1:15 PM 19.0 °C 11.0 °C 60% 1010.7 hPa 16.1 km NW 13.0 km/h / 3.6 m/s - N/A   Clear
1:35 PM 19.0 °C 11.0 °C 60% 1010.7 hPa 16.1 km WNW 7.4 km/h / 2.1 m/s - N/A Thunderstorm Thunderstorm
1:55 PM 20.0 °C 11.0 °C 56% 1010.0 hPa 16.1 km NW 7.4 km/h / 2.1 m/s - N/A   Clear
2:15 PM 20.0 °C 10.0 °C 52% 1010.0 hPa 16.1 km Calm Calm - N/A   Clear
2:35 PM 21.0 °C 10.0 °C 49% 1009.7 hPa 16.1 km WNW 9.3 km/h / 2.6 m/s - N/A Thunderstorm Clear
2:55 PM 21.0 °C 8.0 °C 43% 1009.7 hPa 16.1 km WNW 9.3 km/h / 2.6 m/s - N/A   Clear
3:15 PM 21.0 °C 8.0 °C 43% 1009.4 hPa 16.1 km WNW 13.0 km/h / 3.6 m/s - N/A   Clear
3:35 PM 22.0 °C 7.0 °C 38% 1009.4 hPa 16.1 km Calm Calm - N/A   Clear
4:15 PM 22.0 °C 8.0 °C 41% 1009.0 hPa 16.1 km NNW 11.1 km/h / 3.1 m/s - N/A   Clear
4:35 PM 22.0 °C 7.0 °C 38% 1008.7 hPa 16.1 km WNW 5.6 km/h / 1.5 m/s - N/A   Clear
4:55 PM 22.0 °C 6.0 °C 35% 1008.4 hPa 16.1 km Calm Calm - N/A   Clear
5:15 PM 23.0 °C 6.0 °C 33% 1007.7 hPa 16.1 km Calm Calm - N/A   Clear
5:35 PM 23.0 °C 6.0 °C 33% 1007.0 hPa 16.1 km SSE 9.3 km/h / 2.6 m/s - N/A Rain Light Rain
5:55 PM 21.0 °C 6.0 °C 38% 1006.7 hPa 16.1 km SSE 9.3 km/h / 2.6 m/s - N/A Rain , Thunderstorm Light Thunderstorms and Rain
6:15 PM 20.0 °C 7.0 °C 43% 1007.0 hPa 16.1 km SSW 9.3 km/h / 2.6 m/s - N/A Thunderstorm Clear
6:35 PM 16.0 °C 8.0 °C 59% 1009.0 hPa 16.1 km WNW 50.0 km/h / 13.9 m/s 64.8 km/h / 18.0 m/s N/A Rain , Thunderstorm Light Thunderstorms and Rain
6:55 PM 13.0 °C 10.0 °C 82% 1010.4 hPa 16.1 km NW 33.3 km/h / 9.3 m/s 53.7 km/h / 14.9 m/s N/A Rain Light Rain
7:15 PM 12.0 °C 10.0 °C 88% 1010.0 hPa 8.0 km North 35.2 km/h / 9.8 m/s 53.7 km/h / 14.9 m/s N/A Rain Rain
7:35 PM 12.0 °C 10.0 °C 88% 1010.4 hPa 11.3 km North 25.9 km/h / 7.2 m/s 40.7 km/h / 11.3 m/s 0.3 mm Rain Light Rain
7:55 PM 12.0 °C 9.0 °C 82% 1009.7 hPa 16.1 km North 35.2 km/h / 9.8 m/s 51.9 km/h / 14.4 m/s 0.3 mm Thunderstorm Scattered Clouds
8:15 PM 12.0 °C 7.0 °C 72% 1009.7 hPa 16.1 km North 38.9 km/h / 10.8 m/s 61.1 km/h / 17.0 m/s N/A   Clear
8:35 PM 13.0 °C 6.0 °C 63% 1009.0 hPa 16.1 km NNE 38.9 km/h / 10.8 m/s 55.6 km/h / 15.4 m/s N/A   Clear
8:55 PM 13.0 °C 6.0 °C 63% 1009.0 hPa 16.1 km NNE 40.7 km/h / 11.3 m/s 57.4 km/h / 15.9 m/s N/A   Clear
9:15 PM 13.0 °C 6.0 °C 63% 1008.7 hPa 16.1 km NNE 33.3 km/h / 9.3 m/s 51.9 km/h / 14.4 m/s N/A   Clear
9:35 PM 14.0 °C 5.0 °C 55% 1008.4 hPa 16.1 km NNE 22.2 km/h / 6.2 m/s 35.2 km/h / 9.8 m/s N/A Thunderstorm Clear
9:55 PM 14.0 °C 5.0 °C 55% 1008.4 hPa 16.1 km North 11.1 km/h / 3.1 m/s - N/A   Clear
10:15 PM 14.0 °C 5.0 °C 55% 1008.0 hPa 16.1 km North 11.1 km/h / 3.1 m/s - N/A   Clear
10:35 PM 13.0 °C 6.0 °C 63% 1008.7 hPa 16.1 km NW 24.1 km/h / 6.7 m/s 38.9 km/h / 10.8 m/s N/A   Clear
10:55 PM 12.0 °C 7.0 °C 72% 1008.7 hPa 16.1 km NW 24.1 km/h / 6.7 m/s - N/A   Clear
11:15 PM 12.0 °C 7.0 °C 72% 1009.0 hPa 16.1 km West 9.3 km/h / 2.6 m/s - N/A   Clear
11:35 PM 11.0 °C 8.0 °C 82% 1009.4 hPa 16.1 km NW 13.0 km/h / 3.6 m/s - N/A   Scattered Clouds